Activity Log for Aug, 06 2019

Back to Activity Log Search


Incident Time Nature Address
19F094520 00:00:04 30 TRAFFIC STOP 22XX BLK ST MARYS AVE
19F094521 00:01:11 30 TRAFFIC STOP E PONTIAC ST & WINTER ST
19F094522 00:08:18 1 MEET 99XX RAINER PASS
19F094523 00:12:55 34 TRAFF HAZARD S LAFAYETTE ST & E RUDISILL BLVD
19F094524 00:13:51 67 INDECENT 9XX E WASHINGTON BLVD
19F094525 00:26:12 14S SERVING WAR 10XX EDGEWATER AVE
19F094526 00:27:04 48 SUSPICIOUS 77XX LIMA RD
19F094527 00:29:14 30 TRAFFIC STOP LIMA RD & W WASHINGTON CENTER RD
19F094528 00:37:46 40 ALARM 14XX ST JOSEPH BLVD
19F094530 00:40:17 103 UNWANTED 13XX EWING ST
19F094529 00:40:52 14S SERVING WAR 9XX COLUMBIA AVE
19F094531 00:51:30 911 HANG UP 46XX E WASHINGTON BLVD
19F094532 00:59:08 30 TRAFFIC STOP LAKE AVE & RANDALLIA DR
19F094533 00:59:36 48,36 49XX NORTHFIELD DR
19F094534 01:03:15 23 VANDALISM 14XX LAKE AVE
19F094535 01:05:59 46 DOMESTIC 33XX S BARR ST
19F094536 01:08:07 48,36 REED RD & STELLHORN RD
19F094537 01:10:26 48,36 14XX LAKE AVE
19F094538 01:16:50 48 SUSPICIOUS 10XX THIRD ST
19F094539 01:20:24 40A AUDIBLE 53XX ABBEYHILL RD
19F094540 01:22:09 50 BURGLARY 12XX SCOTT AVE
19F094541 01:24:48 43 DISTURBANCE 53XX COLDWATER RD
19F094543 01:29:35 99 NARCOTICS S ANTHONY BLVD & E PONTIAC ST
19F094542 01:30:36 30 TRAFFIC STOP W COLISEUM BLVD & SHERMAN BLVD
19F094544 01:45:23 43 DISTURBANCE 29XX KOONS ST
19F094546 01:47:11 43 DISTURBANCE 31XX BROADWAY
19F094545 01:48:04 48,36 1XX W WASHINGTON CENTER RD
19F094548 01:50:12 40 ALARM 82XX KILLEEN RUN
19F094547 01:51:31 48,36 77XX NORTH RIVER RD
19F094549 01:55:02 48,36 77XX NORTH RIVER RD
19F094550 01:58:50 43 DISTURBANCE 29XX WARSAW ST
19F094551 02:02:36 30 TRAFFIC STOP S LAFAYETTE ST & S HANNA ST
19F094552 02:04:19 48 SUSPICIOUS 15XX KITCH ST
19F094553 02:18:51 96IP 10XX N COLISEUM BLVD
19F094554 02:24:21 48,35 30XX PENNSYLVANIA ST
19F094555 02:36:03 48 SUSPICIOUS 13XX SPRING ST
19F094557 02:38:48 48 SUSPICIOUS E WASHINGTON BLVD & MEYER RD
19F094556 02:39:45 48 SUSPICIOUS S ANTHONY BLVD & E CREIGHTON AVE
19F094558 02:49:49 1 MEET 37XX E WASHINGTON BLVD
19F094559 02:57:19 38A LOST/ARTICL 72XX NELWOOD DR
19F094560 03:04:18 48,35 67XX TRIER RD
19F094561 03:04:24 30 TRAFFIC STOP GAYWOOD DR & E RUDISILL BLVD
19F094562 03:10:16 48 SUSPICIOUS 68XX BLUFFTON RD
19F094563 03:14:53 48,36 MAPLECREST RD & ROTHMAN RD
19F094564 03:26:08 40A AUDIBLE 42XX COLDWATER RD
19F094565 03:33:11 30 TRAFFIC STOP S HANNA ST & GUMPPER AVE
19F094566 03:39:39 48 SUSPICIOUS N COLISEUM BLVD & LAKE AVE
19F094567 03:44:37 48 SUSPICIOUS 42XX LAKE AVE
19F094568 04:06:45 14 WARRANT 57XX CHALLENGER PKWY
19F094569 04:09:09 48 SUSPICIOUS LAKE AVE & LAVERNE AVE
19F094570 04:19:06 30 TRAFFIC STOP HESSEN CASSEL RD & E MAPLE GROVE A
19F094571 04:22:19 39R STOLEN RECO 45XX S COLONIAL AVE
19F094572 04:29:04 30 TRAFFIC STOP S ANTHONY BLVD & SEDDLEMEYER AVE
19F094573 04:35:24 41,36 22XX CURDES AVE
19F094574 05:03:27 40A AUDIBLE 34XX MEYER RD
19F094575 05:13:48 34 TRAFF HAZARD HIGH ST & SHERMAN BLVD
19F094576 05:16:07 48 SUSPICIOUS REED ST & OXFORD ST
19F094577 05:43:36 40A AUDIBLE 50XX BLUFFTON RD
19F094578 05:51:17 30 TRAFFIC STOP REED RD & DODGE AVE
19F094580 05:52:26 39U UNAUTHORIZE 10XX THIRD ST
19F094579 05:57:30 30 TRAFFIC STOP S LAFAYETTE ST & E SUPERIOR ST
19F094581 06:06:05 129 10XX FAYETTE DR
19F094582 06:11:57 48 SUSPICIOUS 19XX MARY ST
19F094583 06:17:51 48 SUSPICIOUS S CLINTON ST & E RUDISILL BLVD
19F094584 06:27:52 48,36 S HANNA ST & DREXEL AVE
19F094585 06:30:14 34 TRAFF HAZARD I 69 AND ILLINOIS RD
19F094586 06:50:01 25 PD ACCIDENT MAYSVILLE RD & STELLHORN RD
19F094587 07:04:58 111I INJURED 100XX E LIMBERLOST TRL
19F094588 07:14:50 23 VANDALISM 35XX MCKINNIE AVE
19F094589 07:21:04 48 SUSPICIOUS 3XX S CLINTON ST
19F094590 07:22:11 46,96 1XX E WOODLAND AVE
19F094591 07:25:49 33,34 ST JOE CENTER RD & N BROOKWOOD DR
19F094592 07:28:13 34 TRAFF HAZARD 304XX I 69 NB
19F094593 07:34:29 51 THEFT 3XX S CLINTON ST
19F094594 07:41:48 51,35 12XX HOME AVE
19F094596 07:42:15 48 SUSPICIOUS S COLISEUM BLVD AND E WASHINGTON B
19F094595 07:42:17 48 SUSPICIOUS 19XX N CLINTON ST
19F094597 07:45:44 39 STOLEN VEHIC 1XX E WOODLAND AVE
19F094600 07:46:47 EMS 8XX KENWOOD AVE
19F094598 07:49:14 48 SUSPICIOUS AUBURN RD & E COOK RD
19F094599 07:49:18 48,36 22XX BROWN ST
19F094602 07:57:29 103 UNWANTED 9XX LIBRARY PLAZA
19F094601 07:58:52 25 PD ACCIDENT W COLISEUM BLVD & GOSHEN RD
19F094606 08:00:51 108 FOLLOWUP 42XX AIRPORT EXPRESSWAY
19F094603 08:01:31 50IP BURG I/P 66XX E STATE BLVD
19F094604 08:02:58 30 TRAFFIC STOP COLDWATER RD & E DUPONT RD
19F094605 08:03:25 30 TRAFFIC STOP I 69 AND COLDWATER RD
19F094607 08:26:22 25 PD ACCIDENT LIMA RD & W COLISEUM BLVD
19F094608 08:26:47 63 CONTACT FAIRFIELD AVE & W PACKARD AVE
19F094609 08:33:15 48 SUSPICIOUS N ANTHONY BLVD & E COLISEUM BLVD
19F094610 08:46:57 63 CONTACT ARLINGTON AVE & W BRANNING AVE
19F094611 08:55:39 51,35 44XX AUSTIN DR
19F094612 08:56:32 30 TRAFFIC STOP WELLS ST & W FERNHILL AVE
19F094613 08:58:51 51,35 14XX GEORGETOWNE PARK DR
19F094614 09:01:03 46 DOMESTIC 9XX COLERICK ST
19F094615 09:05:44 48 SUSPICIOUS MIDDLE GROVE RD & LIBERTY MILLS RD
19F094616 09:15:38 37 PARKING VIOL 17XX SINCLAIR ST
19F094619 09:16:31 1 MEET 68XX WOODLYNN DR
19F094617 09:19:19 30 TRAFFIC STOP LIMA RD & W LUDWIG RD
19F094618 09:20:19 80P Serving PO 26XX MAULDIN DR
19F094622 09:28:33 43 DISTURBANCE ST JOE CENTER RD & ST JOE RD
19F094621 09:28:47 129 81XX SUMMERSET PL
19F094623 09:32:57 103 UNWANTED 57XX FALLS DR
19F094624 09:33:17 39 STOLEN VEHIC 50XX DEVONSHIRE DR
19F094625 09:38:53 25 PD ACCIDENT 105XX MAYSVILLE RD
19F094626 09:40:43 108 FOLLOWUP 9XX S ANTHONY BLVD
19F094627 09:53:18 103 UNWANTED 9XX LIBRARY PLAZA
19F094628 09:53:59 16,97 18XX W MAIN ST
19F094629 09:55:48 97A LOST ITEMS 1XX W BAKER ST
19F094631 09:56:55 ATL 23XX REYNOLDS ST
19F094630 09:57:28 39U UNAUTHORIZE 10XX N COLISEUM BLVD
19F094632 10:02:09 51 THEFT 5XX E HAWTHORNE ST
19F094634 10:03:05 17 MOTOR CHECK 4XX E DEWALD ST
19F094633 10:06:59 51 THEFT 3XX E TILLMAN RD
19F094635 10:08:56 51 THEFT 29XX ST LOUIS AVE
19F094636 10:14:47 30 TRAFFIC STOP JANET DR & REED RD
19F094638 10:24:22 48 SUSPICIOUS 12XX CHARLOTTE AVE
19F094637 10:25:46 23,35 VAND VEH 15XX THORNAPPLE DR
19F094639 10:28:15 43 DISTURBANCE E RUDISILL BLVD & SMITH ST
19F094640 10:33:27 96JO 60XX ST JOE RD
19F094641 10:35:21 63 CONTACT 14XX BETHANY LN
19F094645 10:35:44 16,97 74XX CLINGMANS TRL
19F094642 10:40:36 17 MOTOR CHECK 15XX HALE AVE
19F094643 10:44:20 48 SUSPICIOUS COLDWATER RD & E ESSEX LN
19F094644 10:46:10 43 DISTURBANCE 4XX RUTH ST
19F094646 10:55:12 25 PD ACCIDENT W MASTERSON AVE & FAIRFIELD AVE
19F094647 10:57:10 65T SUICIDE THR 1XX W WILDWOOD AVE
19F094648 10:59:50 51 THEFT 53XX MERCHANDISE DR
19F094649 11:09:45 HARASSMENT 33XX MIDDLE ST
19F094650 11:11:27 34 TRAFF HAZARD COLDWATER RD & E WASHINGTON CENTER
19F094651 11:26:23 30 TRAFFIC STOP S ANTHONY BLVD & E WAYNE TRACE
19F094652 11:29:14 1 MEET LIMA RD & MERKLER ST
19F094653 11:30:31 25 PD ACCIDENT W RUDISILL BLVD & S CALHOUN ST
19F094655 11:31:48 25 PD ACCIDENT E WASHINGTON BLVD & GLASGOW AVE
19F094654 11:32:39 40A AUDIBLE 36XX LIMA RD
19F094656 11:34:40 25 PD ACCIDENT 9XX SHERMAN BLVD
19F094658 11:42:15 63 CONTACT 42XX CASA VERDE DR
19F094659 11:43:06 63 CONTACT 84XX LAKESIDE DR
19F094657 11:45:01 30 TRAFFIC STOP HESSEN CASSEL RD & HERITAGE DR
19F094660 11:46:58 41,36 57XX CHALLENGER PKWY
19F094661 11:48:38 26 PI ACCIDENT S LAFAYETTE ST & E LEWIS ST
19F094663 11:51:48 ATL WINCHESTER RD & LOWER HUNTINGTON R
19F094662 11:52:55 50,ATTEMPTED 32XX ADDISON AVE
19F094664 11:54:22 46 DOMESTIC 79XX DECATUR RD
19F094667 11:56:56 33,34 S LAFAYETTE ST & E PAULDING RD
19F094668 11:58:44 17 MOTOR CHECK 37XX MARCHFIELD PL
19F094666 12:00:28 63 CONTACT NELSON ST & GUTHRIE ST
19F094669 12:00:40 46,96 28XX PARNELL AVE
19F094665 12:00:49 48,36 57XX CHALLENGER PKWY
19F094670 12:04:56 48,36 SMITH ST & HAMILTON AVE
19F094671 12:11:59 30 TRAFFIC STOP 7XX W COLISEUM BLVD
19F094672 12:12:36 41 MAN DOWN 53XX COLDWATER RD
19F094673 12:21:37 34 TRAFF HAZARD SMITH ST & E RUDISILL BLVD
19F094677 12:25:40 111D DOG 53XX COLDWATER RD
19F094674 12:27:35 25 PD ACCIDENT ILLINOIS RD & APPLE GLEN BLVD
19F094675 12:28:26 63 CONTACT 18XX BLUFFTON RD
19F094685 12:29:12 17 MOTOR CHECK 23XX CORTLAND AVE
19F094676 12:31:23 48 SUSPICIOUS 48XX S ANTHONY BLVD
19F094678 12:34:10 46,96 15XX S WINDSOR WOODS BLVD
19F094681 12:35:04 102 THREATS XX E MAIN ST
19F094687 12:35:36 27 RECKLESS DRI SUNDERLAND DR & HINSDALE LN
19F094682 12:36:15 103 UNWANTED 42XX CASA VERDE DR
19F094679 12:37:05 30 TRAFFIC STOP ST JOE CENTER RD & UPPER ST JOE CE
19F094680 12:37:17 48 SUSPICIOUS 53XX COLDWATER RD
19F094683 12:37:21 103 UNWANTED 16XX W COOK RD
19F094686 12:37:29 33,34 ARDMORE AVE & COVINGTON RD
19F094684 12:39:41 102 THREATS 71XX WRANGLER TRL
19F094688 12:43:34 911 HANG UP 11XX E TILLMAN RD
19F094689 12:46:56 62 PARTY ARMED W COLISEUM BLVD & GOSHEN RD
19F094690 13:02:50 41 MAN DOWN 30XX W COLISEUM BLVD
19F094691 13:03:34 103 UNWANTED 10XX BROADWAY
19F094692 13:05:09 1 MEET 125XX FOGWELL PKWY
19F094693 13:05:36 103 UNWANTED 73XX LIMA RD
19F094695 13:08:44 25 PD ACCIDENT CRESCENT AVE & E COLISEUM BLVD
19F094694 13:09:22 51 THEFT 48XX SOUTH PARK DR
19F094697 13:11:30 46,96 29XX EUCLID AVE
19F094696 13:14:00 41 MAN DOWN 22XX FAIRFIELD AVE
19F094715 13:15:10 51 THEFT 55XX MEIJER DR
19F094721 13:17:52 37 PARKING VIOL 34XX HOAGLAND AVE
19F094698 13:18:23 51 THEFT 83XX COVINGTON RD
19F094720 13:20:53 37 PARKING VIOL ARCADIA CT & HOAGLAND AVE
19F094699 13:22:44 40P PANIC ALARM 127XX COLDWATER RD
19F094700 13:24:35 25 PD ACCIDENT ILLINOIS RD & GETZ RD
19F094701 13:25:34 33,34 HOBSON RD & CRESCENT AVE
19F094702 13:30:15 51 THEFT 43XX JOSHUA LN
19F094703 13:33:29 51,35 22XX BROADWAY
19F094704 13:35:18 25 PD ACCIDENT 27XX W JEFFERSON BLVD
19F094706 13:41:20 46 DOMESTIC 8XX LEMONWOOD CT
19F094705 13:42:10 103 UNWANTED 30XX GOSHEN RD
19F094707 13:49:15 46 DOMESTIC 82XX SAKADEN PKWY
19F094710 13:49:18 40I INTRUSION 60XX MAPLECREST RD
19F094708 13:49:19 46,62 47XX DRUID HILLS DR
19F094716 13:51:32 51,35 13XX CLARA AVE
19F094724 13:51:49 16,97 38XX COLDWATER RD
19F094709 13:51:53 48 SUSPICIOUS 27XX LILLIE ST
19F094714 13:53:50 27 RECKLESS DRI W JEFFERSON BLVD & I 69 302 SB ON
19F094712 13:55:10 46,96 2XX E PAULDING RD
19F094711 13:56:00 30 TRAFFIC STOP ILLINOIS RD & HILLDALE DR
19F094713 13:59:30 911 HANG UP 5XX SPRINGBROOK RD
19F094717 14:02:29 102 THREATS 42XX COLDWATER RD
19F094718 14:05:18 65T SUICIDE THR 14XX CASS ST
19F094719 14:06:51 14S SERVING WAR 23XX EBY AVE
19F094727 14:13:35 22RN RUNAWAY 42XX CENTRAL DR
19F094722 14:15:04 48 SUSPICIOUS PARKVIEW AVE & LINDLEY AVE
19F094723 14:15:24 22RC RECOVERY 22XX BROWN ST
19F094728 14:17:47 14 WARRANT XX E MAIN ST
19F094725 14:17:53 108 FOLLOWUP 55XX MEIJER DR
19F094726 14:18:28 108 FOLLOWUP 55XX MEIJER DR
19F094729 14:20:36 30 TRAFFIC STOP BROADWAY & PARKVIEW AVE
19F094730 14:21:45 40A AUDIBLE 8XX ELIZA ST
19F094734 14:28:30 40A AUDIBLE 36XX LIMA RD
19F094733 14:28:35 50 BURGLARY 61XX BUNT DR
19F094731 14:29:32 26 PI ACCIDENT SPEEDWAY DR & W COLISEUM BLVD
19F094732 14:30:22 30 TRAFFIC STOP W JEFFERSON BLVD & GETZ RD
19F094735 14:34:44 103 UNWANTED 30XX W COLISEUM BLVD
19F094736 14:36:38 30 TRAFFIC STOP GRACE AVE & MINER ST
19F094737 14:38:10 30 TRAFFIC STOP E RUDISILL BLVD & S LAFAYETTE ST
19F094739 14:38:36 14 WARRANT XX E MAIN ST
19F094738 14:40:02 30 TRAFFIC STOP E TILLMAN RD & S CALHOUN ST
19F094740 14:42:12 129 52XX FOX MILL RUN
19F094741 14:42:26 129 42XX BELLO DR
19F094742 14:42:45 33,34 S LAFAYETTE ST & MURRAY ST
19F094743 14:42:56 46,96 30XX FAIRFIELD AVE
19F094746 14:48:00 1 MEET XX E MAIN ST
19F094744 14:48:12 25,86 36XX LIMA RD
19F094745 14:52:26 101 OPEN DOOR 29XX LAKE AVE
19F094747 14:59:18 25 PD ACCIDENT BLUFFTON RD & SANDPOINT RD
19F094748 15:00:57 25HS HIT SKIP 17XX ST MARYS AVE
19F094749 15:02:41 30 TRAFFIC STOP S HANNA ST & BUCHANAN ST
19F094750 15:05:00 30 TRAFFIC STOP BROOKLYN AVE & CARLTON AVE
19F094751 15:10:31 48 SUSPICIOUS CLAY ST & E WASHINGTON BLVD
19F094752 15:10:33 25 PD ACCIDENT PARNELL AVE & E STATE BLVD
19F094753 15:13:23 33,34 LIMA RD & W COLISEUM BLVD
19F094754 15:16:20 30 TRAFFIC STOP TAYLOR ST & FRARY AVE
19F094755 15:17:26 25 PD ACCIDENT 15XX CINNAMON RD
19F094757 15:17:38 25HS HIT SKIP WOODLAND LAKE PASS & AUBURN RD
19F094756 15:17:49 30 TRAFFIC STOP S CALHOUN ST & W FOSTER PKWY
19F094758 15:18:16 25HS HIT SKIP 17XX CURDES AVE
19F094759 15:18:34 43 DISTURBANCE 12XX WABASH AVE
19F094763 15:19:18 33,34 SPY RUN AVE & ELIZABETH ST
19F094760 15:20:30 25 PD ACCIDENT I 69 AND LIMA RD
19F094761 15:21:28 25 PD ACCIDENT 12XX FAIRFIELD AVE
19F094762 15:23:44 30 TRAFFIC STOP HESSEN CASSEL RD & ASHCROFT DR
19F094764 15:25:46 EMS 1XX W BAKER ST
19F094765 15:27:42 25HS HIT SKIP E RUDISILL BLVD & OLIVER ST
19F094766 15:31:04 1 MEET 21XX BROOKLYN AVE
19F094767 15:35:09 30 TRAFFIC STOP GUTHRIE ST & NELSON ST
19F094769 15:37:38 EMS 33XX W COLISEUM BLVD
19F094768 15:37:57 101 OPEN DOOR 27XX N ANTHONY BLVD
19F094770 15:39:33 30 TRAFFIC STOP BLUFFTON RD & WINCHESTER Rd
19F094771 15:40:53 911 HANG UP 28XX GETZ RD
19F094772 15:43:48 30 TRAFFIC STOP LAKE AVE & N COLISEUM BLVD
19F094773 15:45:56 43 DISTURBANCE 36XX CENTRAL DR
19F094775 15:47:43 25 PD ACCIDENT MAPLECREST RD & STELLHORN RD
19F094774 15:48:05 48 SUSPICIOUS 17XX BROADWAY
19F094777 15:49:14 911 HANG UP 59XX DECATUR RD
19F094776 15:50:24 30 TRAFFIC STOP 39XX SMITH RD
19F094778 15:54:13 48 SUSPICIOUS 3XX W JEFFERSON BLVD
19F094779 15:54:47 23,35 VAND VEH 72XX LAKERIDGE DR
19F094781 15:56:08 101 OPEN DOOR 45XX SW ANTHONY WAYNE DR
19F094780 15:56:45 103 UNWANTED 27XX W COLISEUM BLVD
19F094782 16:00:31 30 TRAFFIC STOP ARDMORE AVE & COVINGTON RD
19F094783 16:03:34 30 TRAFFIC STOP SMITH RD & COVINGTON RD
19F094784 16:03:57 102 THREATS 36XX CENTRAL DR
19F094786 16:04:48 34 TRAFF HAZARD SMITH RD & ENGLE RD
19F094785 16:08:07 30 TRAFFIC STOP TAYLOR ST & FRARY AVE
19F094789 16:14:53 25 PD ACCIDENT 28XX RIDGEWAY DR
19F094787 16:15:13 51IP 31XX FAIRFIELD AVE
19F094788 16:17:30 26PP PINNED 41XX ABBOTT ST
19F094794 16:19:48 14 WARRANT 21XX PHENIE ST
19F094791 16:20:30 103 UNWANTED 2XX W RUDISILL BLVD
19F094790 16:20:54 30 TRAFFIC STOP 50XX SMITH RD
19F094792 16:25:21 103 UNWANTED 2XX E STATE BLVD
19F094795 16:25:58 34 TRAFF HAZARD LIMA RD & PRODUCTION RD
19F094793 16:26:16 66V MENTAL VIOL 71XX S HANNA ST
19F094796 16:27:54 43 DISTURBANCE 40XX BOWSER AVE
19F094797 16:38:30 1 MEET 11XX E RUDISILL BLVD
19F094798 16:40:06 96JO 46XX COVENTRY PKWY
19F094799 16:46:56 30 TRAFFIC STOP 31XX BROOKLYN AVE
19F094800 16:47:06 911 HANG UP 3XX E PETTIT AVE
19F094801 16:48:05 41 MAN DOWN 26XX GOSHEN RD
19F094810 16:49:47 1 MEET 37XX E WASHINGTON BLVD
19F094802 16:51:29 15 ASSIST 14XX FLETCHER AVE
19F094804 16:52:57 96IP S ANTHONY BLVD & E RUDISILL BLVD
19F094803 16:53:36 80 CIVIL INVEST XX E MAIN ST
19F094805 16:54:36 30 TRAFFIC STOP 22XX BROADWAY
19F094806 16:58:05 46 DOMESTIC 88XX GULF DR
19F094808 17:00:08 51,ATTEMPTED 2XX E COLISEUM BLVD
19F094807 17:01:35 33J LOCKED OUT 2XX E PETTIT AVE
19F094809 17:02:39 911 HANG UP 16XX WELLS ST
19F094811 17:05:41 25 PD ACCIDENT E COLISEUM BLVD & COLDWATER RD
19F094812 17:06:28 53 ARMED ROB 57XX E YMCA PARK DR
19F094813 17:07:40 50IP BURG I/P 54XX TWILIGHT LN
19F094814 17:07:48 46 DOMESTIC 46XX E WASHINGTON BLVD
19F094816 17:11:58 1 MEET XX E MAIN ST
19F094815 17:12:14 46,96 55XX WINCHESTER RD
19F094832 17:13:28 17 MOTOR CHECK 26XX LINCOLNDALE AVE
19F094817 17:15:13 34 TRAFF HAZARD 309XX I 69 SB
19F094819 17:20:19 53 ARMED ROB 7XX MECHANIC ST
19F094818 17:21:30 30 TRAFFIC STOP SPY RUN AVE & E STATE BLVD
19F094821 17:25:00 25 PD ACCIDENT E COLISEUM BLVD & CRESCENT AVE
19F094820 17:25:45 33 DISABLED VEH HARRY BAALS DR & E COLISEUM BLVD
19F094822 17:32:16 48,36 42XX COLDWATER RD
19F094823 17:33:39 50JO STERLING ST & HUSER DR
19F094826 17:35:25 911 HANG UP 27XX E PAULDING RD
19F094824 17:36:52 26 PI ACCIDENT HARRIS RD & POINT WEST DR
19F094829 17:37:23 14 WARRANT 7XX BROADWAY
19F094825 17:38:27 30 TRAFFIC STOP ENGLE RD & CLUBVIEW DR
19F094827 17:42:11 30 TRAFFIC STOP REDWOOD AVE & REYNOLDS ST
19F094828 17:42:20 25 PD ACCIDENT N COLISEUM BLVD & LAKE AVE
19F094837 17:43:57 63 CONTACT 6XX VILLA PARK CT
19F094830 17:43:59 25 PD ACCIDENT 15XX W COLISEUM BLVD
19F094834 17:46:12 39R STOLEN RECO S LAFAYETTE ST & E LEWIS ST
19F094831 17:46:48 46 DOMESTIC 36XX S BARR ST
19F094833 17:49:22 40I INTRUSION 33XX E PAULDING RD
19F094835 17:55:04 30 TRAFFIC STOP 50XX SMITH RD
19F094841 17:57:31 28 DUI STELLHORN RD & REED RD
19F094843 17:58:17 63 CONTACT 50XX VERMONT LN
19F094836 17:59:15 25 PD ACCIDENT E COLISEUM BLVD & CRESCENT AVE
19F094840 18:01:45 40A AUDIBLE 14XX E RUDISILL BLVD
19F094839 18:02:12 51JO 53XX COLDWATER RD
19F094838 18:02:49 26 PI ACCIDENT E SHERWOOD TER & S LAFAYETTE ST
19F094842 18:05:12 46 DOMESTIC 5XX E WOODLAND AVE
19F094855 18:06:59 34 TRAFF HAZARD 44XX E PAULDING RD
19F094844 18:10:14 55 FIGHT VANCE AVE & CAREW ST
19F094845 18:10:45 30 TRAFFIC STOP 50XX SMITH RD
19F094846 18:13:11 103 UNWANTED 57XX CHALLENGER PKWY
19F094849 18:16:20 911 HANG UP 43XX GAYWOOD DR
19F094848 18:16:55 96 BATTERY 21XX VANCE AVE
19F094850 18:21:40 30 TRAFFIC STOP ENGLE RD & STATESMANS WAY
19F094852 18:22:59 40A AUDIBLE 28XX CHICHESTER LN
19F094851 18:24:04 99 NARCOTICS 49XX LIMA RD
19F094853 18:25:49 25 PD ACCIDENT LIMA RD & W DUPONT RD
19F094857 18:28:22 22N CHILD NEGLE 13XX GREENE ST
19F094854 18:28:33 22I JUV INVEST W WALLEN RD & OLMSTON DR
19F094856 18:30:43 30 TRAFFIC STOP 50XX SMITH RD
19F094858 18:30:54 14 WARRANT 25XX RIVER COVE TRL
19F094861 18:36:11 39 STOLEN VEHIC 45XX S COLONIAL AVE
19F094860 18:38:42 48 SUSPICIOUS 16XX EMERSON AVE
19F094859 18:39:05 30 TRAFFIC STOP GAYWOOD DR & SENATE AVE
19F094863 18:45:34 40A AUDIBLE 7XX E STATE BLVD
19F094864 18:49:57 99 NARCOTICS 2XX E MAIN ST
19F094862 18:50:48 14 WARRANT 10XX W COLISEUM BLVD
19F094865 18:52:03 40A AUDIBLE 4XX E WAYNE ST
19F094866 18:58:04 1 MEET 8XX LEMONWOOD CT
19F094867 19:00:25 23,35 VAND VEH 36XX HARROW CT
19F094870 19:01:12 39 STOLEN VEHIC 75XX SOUTHTOWN XING
19F094868 19:03:15 911 HANG UP 22XX N CLINTON ST
19F094869 19:06:21 46,96 71XX BASS RD
19F094871 19:06:36 33,34 EWING ST & W SUPERIOR ST
19F094872 19:12:13 40A AUDIBLE 20XX REED RD
19F094873 19:14:02 62 PARTY ARMED 2XX E MAIN ST
19F094874 19:16:05 43,62 14XX HIGH ST
19F094876 19:18:01 103 UNWANTED 16XX HOWELL ST
19F094878 19:20:32 51JO 1XX E RUDISILL BLVD
19F094879 19:25:26 51,35 29XX WAYNE TRACE
19F094880 19:26:34 46 DOMESTIC 8XX LEMONWOOD CT
19F094882 19:28:47 EMS 8XX E COLISEUM BLVD
19F094881 19:29:33 30 TRAFFIC STOP LAKE AVE & INWOOD DR
19F094883 19:37:52 33,34 LIMA RD & GRAHAM DR
19F094884 19:38:50 43,62 71XX HESSEN CASSEL RD
19F094889 19:39:25 51 THEFT 7XX CARIBE BLVD
19F094885 19:41:08 41 MAN DOWN 25XX SPY RUN AVE
19F094886 19:44:44 97 FOUND ITEMS XX E MAIN ST
19F094887 19:51:19 30 TRAFFIC STOP MCKINNIE AVE & S ANTHONY BLVD
19F094890 19:52:12 96 BATTERY XX E MAIN ST
19F094888 19:55:12 1 MEET 20XX BROADWAY
19F094901 19:59:13 39R STOLEN RECO 20XX EMERSON AVE
19F094891 19:59:23 30 TRAFFIC STOP TAYLOR ST & THOMPSON AVE
19F094892 20:01:41 48 SUSPICIOUS 7XX HIGH ST
19F094894 20:02:18 48,36 36XX BROOKLYN AVE
19F094893 20:03:11 27 RECKLESS DRI S CLINTON ST & E PONTIAC ST
19F094895 20:05:52 30 TRAFFIC STOP E RUDISILL BLVD & SMITH ST
19F094896 20:07:09 48,36 25XX STANFORD AVE
19F094897 20:10:06 30 TRAFFIC STOP E RUDISILL BLVD & S CALHOUN ST
19F094898 20:11:25 43 DISTURBANCE 11XX E PONTIAC ST
19F094899 20:13:07 47 REMOVE ITEMS 38XX HASTINGS RD
19F094900 20:16:58 62 PARTY ARMED 22XX HOLTON AVE
19F094902 20:24:56 40A AUDIBLE 16XX N COLISEUM BLVD
19F094903 20:27:22 30 TRAFFIC STOP S CALHOUN ST & E RUDISILL BLVD
19F094904 20:32:16 30 TRAFFIC STOP BRANDRIFF ST & HOAGLAND AVE
19F094905 20:32:42 30 TRAFFIC STOP E CREIGHTON AVE & S HANNA ST
19F094909 20:33:27 108 FOLLOWUP 10XX S CLINTON ST
19F094906 20:35:34 30 TRAFFIC STOP 46XX AVONDALE DR
19F094907 20:36:17 51JO 65XX LIMA RD
19F094908 20:41:18 63 CONTACT 28XX E STATE BLVD
19F094912 20:42:40 39 STOLEN VEHIC 45XX S COLONIAL AVE
19F094910 20:46:53 33J LOCKED OUT 53XX COLDWATER RD
19F094911 20:49:06 63 CONTACT 13XX GREENE ST
19F094913 20:50:48 43,62 32XX HOAGLAND AVE
19F094915 20:53:23 48 SUSPICIOUS W MAIN ST & ROCKHILL ST
19F094914 20:53:29 48 SUSPICIOUS 10XX THIRD ST
19F094916 20:56:28 103 UNWANTED 12XX E CREIGHTON AVE
19F094930 20:58:45 44 NUISANCE 7XX FLORENCE AVE
19F094917 20:59:17 1 MEET 55XX ST JOE CENTER RD
19F094928 21:07:17 102 THREATS 33XX CHESTNUT ST
19F094918 21:09:33 41 MAN DOWN 2XX E MAIN ST
19F094919 21:13:05 46,96 39XX S HARRISON ST
19F094926 21:13:23 1 MEET 31XX ADDISON AVE
19F094921 21:16:54 43 DISTURBANCE 4XX WIEBKE ST
19F094920 21:17:48 108 FOLLOWUP XX E MAIN ST
19F094922 21:18:34 33J LOCKED OUT 11XX W STATE BLVD
19F094923 21:20:04 43 DISTURBANCE 53XX COLDWATER RD
19F094924 21:20:45 57 STRONG ARM 41XX WAYNE TRACE
19F094925 21:21:11 14S SERVING WAR 60XX ILLINOIS RD
19F094927 21:22:46 30 TRAFFIC STOP SR 3 & WINNSBORO PASS
19F094932 21:26:17 46 DOMESTIC 3XX W BUTLER ST
19F094929 21:26:22 50IP BURG I/P 1XX ESMOND ST
19F094931 21:29:46 30 TRAFFIC STOP LAKE AVE & LAVERNE AVE
19F094933 21:33:15 26 PI ACCIDENT 100XX ACORN LN
19F094934 21:38:30 43 DISTURBANCE 52XX W ARLINGTON PARK BLVD
19F094935 21:39:24 30 TRAFFIC STOP W COLISEUM BLVD & GOSHEN RD
19F094936 21:41:50 62 PARTY ARMED 22XX HOLTON AVE
19F094940 21:42:08 102,TX THREATS 15XX FISHER ST
19F094937 21:50:15 129 54XX HOPKINTON DR
19F094939 21:56:18 40A AUDIBLE 18XX W DUPONT RD
19F094941 22:01:31 30 TRAFFIC STOP W COLISEUM BLVD & HILLEGAS RD
19F094942 22:03:57 96 BATTERY 27XX MILLBROOK DR
19F094944 22:05:07 44FW 75XX GLENOAK PKWY
19F094943 22:05:57 30 TRAFFIC STOP VENTURA LN & S ANTHONY BLVD
19F094945 22:07:48 30 TRAFFIC STOP E RUDISILL BLVD & S LAFAYETTE ST
19F094949 22:10:17 103 UNWANTED 5XX W JEFFERSON BLVD
19F094947 22:10:24 30 TRAFFIC STOP BROADWAY & W JEFFERSON BLVD
19F094948 22:11:59 30 TRAFFIC STOP ILLINOIS RD & ILLINOIS RD
19F094950 22:12:44 15 ASSIST 13XX GREENE ST
19F094951 22:15:09 48 SUSPICIOUS CRESCENT AVE & HOBSON RD
19F094967 22:15:12 65T SUICIDE THR XX E MAIN ST
19F094952 22:16:22 46,96 21XX HOBSON RD
19F094953 22:17:51 30 TRAFFIC STOP 32XX E WASHINGTON BLVD
19F094955 22:18:26 48,36 10XX W COLISEUM BLVD
19F094956 22:18:53 48,36 8XX REWILL DR
19F094957 22:21:49 30 TRAFFIC STOP CAPITOL AVE & S ANTHONY BLVD
19F094958 22:24:04 30 TRAFFIC STOP N CLINTON ST & E COLISEUM BLVD
19F094959 22:27:47 113 SHOTS FIRED 9XX BUCHANAN ST
19F094960 22:28:10 46 DOMESTIC 45XX WILMETTE ST
19F094961 22:28:28 911 HANG UP 14XX ST JOSEPH BLVD
19F094973 22:31:08 102 THREATS 5XX RIDGEMOOR DR
19F094963 22:32:35 25HS HIT SKIP 303XX I 69 SB
19F094962 22:32:39 30 TRAFFIC STOP W COLISEUM BLVD & LIMA RD
19F094964 22:35:18 43 DISTURBANCE 45XX S HANNA ST
19F094976 22:36:49 51 THEFT 38XX STAFFORD DR
19F094965 22:38:21 51 THEFT 59XX ILLINOIS RD
19F094966 22:39:00 30 TRAFFIC STOP GOSHEN RD & INDEPENDENCE DR
19F094968 22:39:29 46 DOMESTIC COLLEGE ST & WILT ST
19F094970 22:42:58 43 DISTURBANCE WARWICK AVE & WAKEFIELD AVE
19F094971 22:44:29 96JO 36XX WINTER ST
19F094972 22:45:21 48,36 63XX LIMA RD
19F094974 22:47:20 40A AUDIBLE 32XX FOXCROFT DR
19F094975 22:52:17 30 TRAFFIC STOP 30XX W COLISEUM BLVD
19F094977 22:57:51 43 DISTURBANCE 55XX KIMBERLEY RD
19F094978 23:01:06 37 PARKING VIOL 81XX N ARLINGTON PARK BLVD
19F094979 23:02:43 48 SUSPICIOUS DREXEL AVE & LILLIE ST
19F094980 23:04:07 44LM 36XX S HANNA ST
19F094983 23:06:39 48,35 40XX COLDWATER RD
19F094981 23:07:00 43 DISTURBANCE 9XX TAMERA GARDEN AVE
19F094982 23:08:27 44 NUISANCE 36XX HIAWATHA BLVD
19F094984 23:12:15 30 TRAFFIC STOP WINTER ST & GRIER ST
19F094985 23:12:23 41 MAN DOWN 3XX W JEFFERSON BLVD
19F094986 23:13:37 37 PARKING VIOL 79XX WESTMINSTER DR
19F094988 23:15:49 46 DOMESTIC 53XX DECATUR RD
19F094987 23:20:16 30 TRAFFIC STOP TAYLOR ST & FAIRFIELD AVE
19F094989 23:20:59 37 PARKING VIOL 47XX QUEENSBURY DR
19F094993 23:21:45 44 NUISANCE 36XX HIAWATHA BLVD
19F094991 23:21:58 48,36 55XX KIMBERLEY RD
19F094992 23:22:00 99 NARCOTICS 59XX ILLINOIS RD
19F094990 23:22:48 48 SUSPICIOUS 64XX E STATE BLVD
19F094994 23:25:32 30 TRAFFIC STOP LIMA RD & W WALLEN RD
19F094996 23:26:29 48 SUSPICIOUS 77XX VALLEY MEADOWS DR
19F094995 23:26:45 30 TRAFFIC STOP E STATE BLVD & EADE AVE
19F094997 23:31:49 51,35 17XX W FOURTH ST
19F095001 23:41:20 96JO 19XX BALDWIN CREEK APTS ENTR
19F094999 23:42:24 30 TRAFFIC STOP COLLEGE ST & W WASHINGTON BLVD
19F095000 23:43:29 48,36 INNOVATION CT & INNOVATION BLVD
19F095002 23:48:49 30 TRAFFIC STOP N CLINTON ST & E FOURTH ST
19F095003 23:49:26 96JO 3XX E WASHINGTON BLVD
19F095004 23:49:35 40A AUDIBLE 62XX W JEFFERSON BLVD
19F095006 23:49:39 46,96 48XX BADE DR
19F095005 23:50:01 46,96 9XX LAKE RIDGE PL
19F095007 23:52:40 30 TRAFFIC STOP N COLISEUM BLVD & LAKE AVE
19F095008 23:59:34 30 TRAFFIC STOP MAUMEE AVE & S ANTHONY BLVD